CW4232 Weather Reports


time (UTC)temp
F
wind
direction
speed
knots
gust
knots
rain 1hr
in
rain 24hr
in
rain mn
in
humidity
%
barometer
mb
20260508023041 69 46 10.4 18.2 0.00 0.00 0.00 28 1016.0
20260508021541 68 339 8.7 19.1 0.00 0.00 0.00 30 1015.5
20260508020053 69 70 7.0 15.6 0.00 0.00 0.00 29 1017.0
20260508014548 69 167 4.3 12.2 0.00 0.00 0.00 29 1015.9
20260508013051 70 220 7.8 12.2 0.00 0.00 0.00 27 1015.5
20260508011553 71 269 4.3 11.3 0.00 0.00 0.00 25 1015.5
20260508010040 72 275 7.0 11.3 0.00 0.00 0.00 24 1015.2
20260508004555 72 289 3.5 10.4 0.00 0.00 0.00 24 1014.6
20260508003047 71 309 3.5 9.6 0.00 0.00 0.00 26 1014.3
20260508001551 71 185 7.0 16.5 0.00 0.00 0.00 26 1015.5
20260508000047 72 205 5.2 18.2 0.00 0.00 0.00 25 1015.0
20260507234543 72 208 8.7 20.0 0.00 0.00 0.00 24 1014.5
20260507233056 72 229 8.7 26.1 0.00 0.00 0.00 24 1014.5
20260507231541 72 209 12.2 17.4 0.00 0.00 0.00 25 1014.7
20260507230050 73 263 10.4 19.1 0.00 0.00 0.00 23 1014.6
20260507224555 74 245 13.9 20.9 0.00 0.00 0.00 22 1014.3
20260507223047 76 0 2.6 9.6 0.00 0.00 0.00 19 1013.9
20260507221544 76 283 4.3 12.2 0.00 0.00 0.00 19 1013.9
20260507220041 78 5 3.5 12.2 0.00 0.00 0.00 19 1014.0
20260507214537 79 30 4.3 12.2 0.00 0.00 0.00 19 1014.0
20260507213100 77 46 4.3 13.0 0.00 0.00 0.00 19 1014.3
20260507211549 78 327 4.3 8.7 0.00 0.00 0.00 19 1014.3
20260507210049 78 309 2.6 10.4 0.00 0.00 0.00 19 1014.5
20260507204542 80 306 4.3 9.6 0.00 0.00 0.00 18 1014.5
20260507203047 80 329 1.7 14.8 0.00 0.00 0.00 18 1014.6
20260507201540 79 207 5.2 13.0 0.00 0.00 0.00 18 1014.8
20260507200049 80 156 3.5 14.8 0.00 0.00 0.00 20 1014.9
20260507194614 78 144 4.3 10.4 0.00 0.00 0.00 19 1015.2
20260507193044 78 217 3.5 16.5 0.00 0.00 0.00 19 1015.3
20260507191541 78 109 4.3 13.9 0.00 0.00 0.00 19 1015.5
20260507190049 78 202 6.1 14.8 0.00 0.00 0.00 19 1015.9
20260507184540 77 131 7.8 20.0 0.00 0.00 0.00 20 1016.0
20260507183048 77 145 10.4 17.4 0.00 0.00 0.00 20 1016.1
20260507181554 77 144 8.7 18.2 0.00 0.00 0.00 21 1016.3
20260507180047 75 254 1.7 12.2 0.00 0.00 0.00 21 1016.2
20260507174553 73 303 5.2 12.2 0.00 0.00 0.00 23 1016.2
20260507173119 73 254 2.6 10.4 0.00 0.00 0.00 25 1016.5
20260507171554 73 226 3.5 9.6 0.00 0.00 0.00 25 1016.6
20260507170107 72 88 1.7 7.8 0.00 0.00 0.00 26 1016.8
20260507164555 71 323 1.7 7.0 0.00 0.00 0.00 26 1017.0
20260507163042 70 291 2.6 6.1 0.00 0.00 0.00 27 1017.1
20260507161556 69 238 3.5 7.8 0.00 0.00 0.00 27 1017.2
20260507160041 67 266 1.7 7.8 0.00 0.00 0.00 29 1017.4
20260507154542 66 217 3.5 7.8 0.00 0.00 0.00 30 1017.6
20260507153056 65 238 2.6 7.8 0.00 0.00 0.00 31 1017.7
20260507151546 65 269 2.6 7.0 0.00 0.00 0.00 32 1017.6
20260507150047 65 342 1.7 5.2 0.00 0.00 0.00 32 1017.8
20260507144546 64 55 2.6 7.8 0.00 0.00 0.00 33 1017.6
20260507143043 62 41 3.5 8.7 0.00 0.00 0.00 36 1017.6
20260507141607 59 67 4.3 7.8 0.00 0.00 0.00 41 1017.7
20260507140049 52 54 1.7 4.3 0.00 0.00 0.00 50 1017.8
20260507134545 49 0 0.0 3.5 0.00 0.00 0.00 52 1017.8
20260507133043 49 32 0.9 4.3 0.00 0.00 0.00 53 1017.8
20260507131551 47 0 0.0 0.9 0.00 0.00 0.00 55 1017.7
20260507130050 47 0 0.0 0.0 0.00 0.00 0.00 54 1017.5
20260507124540 46 195 0.9 2.6 0.00 0.00 0.00 55 1017.5
20260507123048 45 188 0.9 2.6 0.00 0.00 0.00 56 1017.3
20260507121546 45 290 0.0 0.0 0.00 0.00 0.00 57 1017.2
20260507120053 45 0 0.0 1.7 0.00 0.00 0.00 57 1017.1
20260507114544 45 0 0.0 0.0 0.00 0.00 0.00 56 1017.1
20260507113052 45 0 0.0 1.7 0.00 0.00 0.00 55 1017.3
20260507111541 45 302 0.9 2.6 0.00 0.00 0.00 55 1017.3
20260507110047 46 0 0.0 1.7 0.00 0.00 0.00 53 1017.4
20260507104546 48 316 0.0 0.9 0.00 0.00 0.00 51 1017.2
20260507103043 48 0 0.0 0.0 0.00 0.00 0.00 50 1017.2
20260507101542 48 0 0.0 0.0 0.00 0.00 0.00 50 1017.2
20260507100043 49 0 0.9 3.5 0.00 0.00 0.00 49 1017.3
20260507094544 50 0 0.0 1.7 0.00 0.00 0.00 47 1017.4
20260507093048 52 319 1.7 3.5 0.00 0.00 0.00 45 1017.4
20260507091546 52 0 0.0 6.1 0.00 0.00 0.00 45 1017.4
20260507090045 52 51 2.6 3.5 0.00 0.00 0.00 45 1017.5
20260507084541 52 346 0.0 1.7 0.00 0.00 0.00 45 1017.7
20260507083040 53 309 0.0 2.6 0.00 0.00 0.00 43 1017.8
20260507081545 55 5 0.0 3.5 0.00 0.00 0.00 41 1017.9
20260507080047 57 331 0.9 3.5 0.00 0.00 0.00 38 1018.0
20260507074549 57 66 3.5 7.8 0.00 0.00 0.00 38 1017.8
20260507073102 56 26 1.7 5.2 0.00 0.00 0.00 39 1018.0
20260507071542 56 40 1.7 4.3 0.00 0.00 0.00 39 1017.9
20260507070044 57 0 0.0 3.5 0.00 0.00 0.00 38 1018.1
20260507064552 58 57 2.6 5.2 0.00 0.00 0.00 36 1018.0
20260507063047 59 100 0.9 4.3 0.00 0.00 0.00 36 1018.1
20260507061541 59 55 2.6 5.2 0.00 0.00 0.00 35 1018.1
20260507060048 60 53 2.6 7.0 0.00 0.00 0.00 34 1018.0
20260507054546 62 71 2.6 7.8 0.00 0.00 0.00 32 1018.1
20260507053045 63 90 6.1 9.6 0.00 0.00 0.00 30 1017.9
20260507051542 64 62 2.6 7.8 0.00 0.00 0.00 30 1017.7
20260507050042 64 71 5.2 9.6 0.00 0.00 0.00 29 1017.5
20260507044541 64 101 7.0 9.6 0.00 0.00 0.00 29 1017.5
20260507043047 65 84 4.3 8.7 0.00 0.00 0.00 29 1017.3
20260507041546 65 78 4.3 9.6 0.00 0.00 0.00 28 1017.1
20260507040040 65 78 4.3 8.7 0.00 0.00 0.00 29 1016.9
20260507034549 65 53 6.1 12.2 0.00 0.00 0.00 29 1016.8
20260507033100 66 71 4.3 11.3 0.00 0.00 0.00 29 1016.8
20260507031546 66 55 5.2 11.3 0.00 0.00 0.00 29 1016.7
20260507030041 66 57 6.1 10.4 0.00 0.00 0.00 28 1016.5
20260507024551 67 34 5.2 10.4 0.00 0.00 0.00 28 1016.5